Regional Weather Roundup
Issued by NWS

Home | Current Version | Previous Version | Text Only | Print | Product List | Glossary Off
Versions: 1 2 3 4 5 6 7 8 9 10 11 12 13 14 15 16 17 18 19 20 21 22 23 24 25 26 27 28 29 30 31 32 33 34 35 36 37 38 39 40 41 42 43 44 45 46 47 48 49 50

121
ASUS44 KJAN 212303
RWRMS

MISSISSIPPI HOURLY WEATHER ROUNDUP
NATIONAL WEATHER SERVICE JACKSON MS
600 PM CDT TUE OCT 21 2014

NOTE: "FAIR: INDICATES FEW OR NO CLOUDS BELOW 12,000 FEET WITH NO
SIGNIFICANT WEATHER AND/OR OBSTRUCTIONS TO VISIBILITY.

MSZ001>002-007>008-010>013-018>021-025>028-034>036-220000-
NORTHWEST MISSISSIPPI

CITY           SKY/WX    TMP DP  RH WIND       PRES   REMARKS
CLARKSDALE     FAIR      72  52  49 N9        30.04S
CLEVELAND      FAIR      74  58  56 N6        30.02R
GREENWOOD      CLEAR     73  57  57 NW3       30.01S
GREENVILLE     CLEAR     75  55  49 N6        30.01S
GRENADA          N/A    N/A N/A N/A MISG        N/A
OLIVE BRANCH   CLEAR     66  48  52 N6        30.05S
OXFORD         FAIR      68  48  49 N5        30.05S
TUNICA         CLEAR     70  50  49 N5        30.05R
$$

MSZ003>006-009-014>017-022>024-029>033-037>039-220000-
NORTHEAST MISSISSIPPI

CITY           SKY/WX    TMP DP  RH WIND       PRES   REMARKS
COLUMBUS AFB   CLEAR     71  53  51 N6        30.01S
CORINTH        FAIR      68  48  49 NW3       30.03S
GOLDN TRIANGLE CLEAR     73  55  53 N7        30.01S
STARKVILLE     FAIR      70  55  60 CALM      30.01S
TUPELO         CLEAR     69  48  47 N6        30.02S
$$

MSZ040-058-220000-
CENTRAL MISSISSIPPI

CITY           SKY/WX    TMP DP  RH WIND       PRES   REMARKS
JACKSON INTL   PTCLDY    73  58  59 N3        30.01S
JACKSON HAWKNS PTCLDY    74  58  57 NW3       30.01F
MERIDIAN KEY   CLEAR     70  56  61 NW5       30.00S
MERIDIAN NAS   CLEAR     74  55  51 N3        30.00S
RAYMOND        FAIR      75  70  83 MISG      30.01S
VICKSBURG      CLEAR     74  58  57 N5        30.01S
$$

MSZ059>079-220000-
SOUTH MISSISSIPPI

CITY           SKY/WX    TMP DP  RH WIND       PRES   REMARKS
BROOKHAVEN     FAIR      73  59  60 NW5       30.02S
HATTIESBURG    CLEAR     76  57  51 N3        29.99S
MCCOMB         CLEAR     77  55  46 N5        30.00S
NATCHEZ        CLEAR     73  59  60 CALM      30.02R
PINE BELT      CLEAR     73  55  53 N6        30.01S
$$

MSZ080>082-220000-
COASTAL MISSISSIPPI

CITY           SKY/WX    TMP DP  RH WIND       PRES   REMARKS
BAY ST LOUIS   CLEAR     72  55  56 CALM      29.97R
BILOXI         CLEAR     74  60  61 SW3       29.97R
PASCAGOULA     CLEAR     73  57  57 CALM      29.96S
GULFPORT       CLEAR     76  55  48 CALM      29.96R
$$



USA.gov is the U.S. government's official web portal to all federal, state and local government web resources and services.